When you browse on this site, cookies collect data to enhance your experience and personalize the content and advertising you see.
Visit our Privacy Policy to learn more. By continuing to use the site, you agree to this use of cookies and data.
  • In Hungary
  • List of Countries
  • For 7 days
  • Water Temperature
  • Satellite Maps
  • Weather Map
  • News
  • Weather Widgets
  • user-avatar
    Login

    Hourly Weather Pazardzhik

    Today, 15 December, Saturday

    Time Temperature Precipitation Wind Pressure Humidity
    00:00 +6°C° 0 mm 1 mps 744 mmHg 95%
    01:00 +6°C° 0 mm 1 mps 744 mmHg 95%
    02:00 +6°C° 0 mm 2 mps 744 mmHg 95%
    03:00 +7°C° 0 mm 1 mps 744 mmHg 95%
    04:00 +7°C° 0 mm 1 mps 744 mmHg 95%
    05:00 +7°C° 0 mm 1 mps 744 mmHg 94%
    06:00 +7°C° 0 mm 1 mps 744 mmHg 94%
    07:00 +7°C° 0 mm 1 mps 744 mmHg 94%
    08:00 +6°C° 0 mm 2 mps 743 mmHg 94%
    09:00 +7°C° 0 mm 2 mps 743 mmHg 90%
    10:00 +8°C° 0 mm 2 mps 744 mmHg 85%
    11:00 +10°C° 0 mm 2 mps 744 mmHg 81%
    12:00 +10°C° 0 mm 2 mps 743 mmHg 80%
    13:00 +12°C° 0 mm 2 mps 743 mmHg 79%
    14:00 +12°C° 0 mm 2 mps 743 mmHg 81%
    15:00 +10°C° 0 mm 2 mps 743 mmHg 85%
    16:00 +9°C° 0 mm 2 mps 743 mmHg 90%
    17:00 +9°C° 0 mm 1 mps 742 mmHg 94%
    18:00 +9°C° 0 mm 2 mps 742 mmHg 95%
    19:00 +9°C° 0 mm 2 mps 742 mmHg 95%
    20:00 +9°C° 0 mm 2 mps 742 mmHg 95%
    21:00 +9°C° 0 mm 2 mps 742 mmHg 95%
    22:00 +9°C° 0 mm 2 mps 742 mmHg 95%
    23:00 +9°C° 0 mm 2 mps 741 mmHg 95%

    Tomorrow, 16 December, Sunday

    Time Temperature Precipitation Wind Pressure Humidity
    00:00 +9°C° 0 mm 2 mps 741 mmHg 95%
    01:00 +9°C° 0 mm 2 mps 741 mmHg 95%
    02:00 +9°C° 0 mm 2 mps 741 mmHg 95%
    03:00 +9°C° 0.1 mm 2 mps 741 mmHg 95%
    04:00 +9°C° 0.1 mm 2 mps 741 mmHg 95%
    05:00 +9°C° 0.1 mm 2 mps 740 mmHg 95%
    06:00 +9°C° 0.2 mm 2 mps 740 mmHg 95%
    07:00 +9°C° 0.2 mm 2 mps 740 mmHg 96%
    08:00 +9°C° 0.2 mm 2 mps 740 mmHg 96%
    09:00 +10°C° 0.5 mm 2 mps 741 mmHg 95%
    10:00 +10°C° 0.5 mm 2 mps 741 mmHg 93%
    11:00 +10°C° 0.5 mm 2 mps 742 mmHg 92%
    12:00 +10°C° 1.4 mm 2 mps 742 mmHg 92%
    13:00 +10°C° 1.4 mm 2 mps 742 mmHg 92%
    14:00 +10°C° 1.4 mm 2 mps 742 mmHg 92%
    15:00 +9°C° 2.7 mm 2 mps 742 mmHg 92%
    16:00 +8°C° 2.7 mm 2 mps 742 mmHg 91%
    17:00 +7°C° 2.7 mm 2 mps 743 mmHg 91%
    18:00 +6°C° 1.8 mm 2 mps 743 mmHg 90%
    19:00 +6°C° 1.8 mm 2 mps 744 mmHg 90%
    20:00 +6°C° 1.8 mm 2 mps 744 mmHg 89%
    21:00 +5°C° 0.7 mm 2 mps 744 mmHg 89%
    22:00 +5°C° 0.7 mm 2 mps 744 mmHg 89%
    23:00 +6°C° 0.7 mm 1 mps 745 mmHg 89%

    Day after tomorrow, 17 December, Monday

    Time Temperature Precipitation Wind Pressure Humidity
    00:00 +6°C° 0.3 mm 1 mps 745 mmHg 89%
    01:00 +6°C° 0.3 mm 1 mps 745 mmHg 88%
    02:00 +6°C° 0.3 mm 1 mps 745 mmHg 88%
    03:00 +6°C° 0.1 mm 1 mps 745 mmHg 88%
    04:00 +6°C° 0.1 mm 1 mps 745 mmHg 88%
    05:00 +6°C° 0.1 mm 1 mps 745 mmHg 88%
    06:00 +6°C° 0.1 mm 1 mps 745 mmHg 88%
    07:00 +6°C° 0.1 mm 1 mps 745 mmHg 88%
    08:00 +6°C° 0.1 mm 1 mps 745 mmHg 88%
    09:00 +7°C° 0.1 mm 1 mps 745 mmHg 88%
    10:00 +8°C° 0.1 mm 1 mps 745 mmHg 87%
    11:00 +9°C° 0.1 mm 1 mps 745 mmHg 87%
    12:00 +9°C° 0 mm 1 mps 744 mmHg 88%
    13:00 +9°C° 0 mm 1 mps 744 mmHg 89%
    14:00 +9°C° 0 mm 1 mps 744 mmHg 90%
    15:00 +9°C° 0.1 mm 1 mps 744 mmHg 91%
    16:00 +9°C° 0.1 mm 1 mps 744 mmHg 93%
    17:00 +8°C° 0.1 mm 1 mps 744 mmHg 95%
    18:00 +8°C° 0.5 mm 1 mps 744 mmHg 95%
    19:00 +8°C° 0.5 mm 1 mps 744 mmHg 95%
    20:00 +8°C° 0.5 mm 1 mps 745 mmHg 95%
    21:00 +8°C° 0.6 mm 1 mps 745 mmHg 95%
    22:00 +7°C° 0.6 mm 1 mps 745 mmHg 95%
    23:00 +7°C° 0.6 mm 1 mps 745 mmHg 94%

    18 December, Tuesday

    Time Temperature Precipitation Wind Pressure Humidity
    00:00 +7°C° 0.4 mm 1 mps 745 mmHg 94%
    01:00 +7°C° 0.4 mm 1 mps 745 mmHg 94%
    02:00 +7°C° 0.4 mm 1 mps 745 mmHg 94%
    03:00 +7°C° 0.5 mm 1 mps 745 mmHg 93%
    04:00 +7°C° 0.5 mm 1 mps 745 mmHg 93%
    05:00 +6°C° 0.5 mm 1 mps 745 mmHg 93%
    06:00 +6°C° 0.7 mm 1 mps 745 mmHg 92%
    07:00 +5°C° 0.7 mm 2 mps 746 mmHg 92%
    08:00 +5°C° 0.7 mm 2 mps 746 mmHg 91%
    09:00 +5°C° 0.7 mm 2 mps 746 mmHg 91%
    10:00 +5°C° 0.7 mm 2 mps 747 mmHg 90%
    11:00 +5°C° 0.7 mm 2 mps 747 mmHg 89%
    12:00 +5°C° 0.4 mm 2 mps 747 mmHg 88%
    13:00 +6°C° 0.4 mm 2 mps 747 mmHg 88%
    14:00 +6°C° 0.4 mm 2 mps 747 mmHg 88%
    15:00 +5°C° 0.2 mm 2 mps 747 mmHg 88%
    16:00 +5°C° 0.2 mm 2 mps 747 mmHg 88%
    17:00 +5°C° 0.2 mm 2 mps 748 mmHg 89%
    18:00 +4°C° 0.1 mm 2 mps 748 mmHg 89%
    19:00 +4°C° 0.1 mm 2 mps 748 mmHg 89%
    20:00 +4°C° 0.1 mm 2 mps 749 mmHg 89%
    21:00 +4°C° 0 mm 2 mps 749 mmHg 89%
    22:00 +3°C° 0 mm 2 mps 749 mmHg 89%
    23:00 +3°C° 0 mm 2 mps 749 mmHg 89%

    19 December, Wednesday

    Time Temperature Precipitation Wind Pressure Humidity
    00:00 +3°C° 0 mm 2 mps 749 mmHg 89%
    01:00 +3°C° 0 mm 2 mps 749 mmHg 89%
    02:00 +2°C° 0 mm 2 mps 749 mmHg 89%
    03:00 +2°C° 0 mm 2 mps 749 mmHg 89%
    04:00 +2°C° 0 mm 2 mps 749 mmHg 89%
    05:00 +2°C° 0 mm 2 mps 749 mmHg 89%
    06:00 +3°C° 0.1 mm 1 mps 749 mmHg 89%
    07:00 +3°C° 0.1 mm 1 mps 749 mmHg 89%
    08:00 +3°C° 0.1 mm 1 mps 750 mmHg 89%
    09:00 +4°C° 0.1 mm 1 mps 750 mmHg 87%
    10:00 +5°C° 0.1 mm 1 mps 750 mmHg 85%
    11:00 +5°C° 0.1 mm 1 mps 750 mmHg 82%
    12:00 +6°C° 0.1 mm 1 mps 750 mmHg 82%
    13:00 +6°C° 0.1 mm 1 mps 749 mmHg 82%
    14:00 +6°C° 0.1 mm 1 mps 749 mmHg 81%
    15:00 +5°C° 0 mm 1 mps 750 mmHg 84%
    16:00 +5°C° 0 mm 1 mps 750 mmHg 86%
    17:00 +4°C° 0 mm 1 mps 750 mmHg 89%
    18:00 +3°C° 0 mm 1 mps 750 mmHg 89%
    19:00 +3°C° 0 mm 1 mps 751 mmHg 90%
    20:00 +2°C° 0 mm 1 mps 751 mmHg 90%
    21:00 +2°C° 0 mm 1 mps 752 mmHg 90%
    22:00 +2°C° 0 mm 1 mps 752 mmHg 89%
    23:00 +1°C° 0 mm 1 mps 752 mmHg 88%

    20 December, Thursday

    Time Temperature Precipitation Wind Pressure Humidity
    00:00 +1°C° 0 mm 1 mps 752 mmHg 87%
    01:00 +1°C° 0 mm 1 mps 752 mmHg 86%
    02:00 +1°C° 0 mm 1 mps 752 mmHg 86%
    03:00 +1°C° 0 mm 1 mps 752 mmHg 84%
    04:00 +1°C° 0 mm 1 mps 752 mmHg 83%
    05:00 +2°C° 0 mm 1 mps 752 mmHg 81%
    06:00 +2°C° 0 mm 1 mps 753 mmHg 80%
    07:00 +2°C° 0 mm 1 mps 753 mmHg 79%
    08:00 +2°C° 0 mm 1 mps 753 mmHg 77%
    09:00 +3°C° 0 mm 1 mps 753 mmHg 74%
    10:00 +5°C° 0 mm 1 mps 753 mmHg 71%
    11:00 +7°C° 0 mm 1 mps 754 mmHg 69%
    12:00 +7°C° 0 mm 1 mps 753 mmHg 69%
    13:00 +8°C° 0 mm 1 mps 753 mmHg 70%
    14:00 +8°C° 0 mm 1 mps 752 mmHg 71%
    15:00 +7°C° 0 mm 1 mps 752 mmHg 75%
    16:00 +5°C° 0 mm 1 mps 752 mmHg 80%
    17:00 +4°C° 0 mm 1 mps 752 mmHg 84%
    18:00 +4°C° 0 mm 1 mps 753 mmHg 84%
    19:00 +3°C° 0 mm 1 mps 753 mmHg 84%
    20:00 +3°C° 0 mm 1 mps 753 mmHg 84%
    21:00 +3°C° 0 mm 1 mps 753 mmHg 83%
    22:00 +2°C° 0 mm 1 mps 753 mmHg 83%
    23:00 +2°C° 0 mm 1 mps 753 mmHg 83%
    Show more